Погода в Новгороде

Хотите узнать прогноз погоды в Новгороде? Тогда Вам сюда: Погода в Новгороде

Поиск расширенной информации на нашем сайте:

Полезная информация:

Новости сайта



02.01.2020
Опубликован Долгосрочный прогноз погоды по городам России и ближнего зарубежья на январь 2020 года.
Карты: Прогноз на январь и февраль 2020 года, Сравнение прогнозируемой аномалии приземной температуры воздуха на январь 2020 года по разным моделям.




Погода в Новгороде - сегодня

Время (UTC), дата Ветер
(°,м/с) 
Видим.   Явления Облачность Т
(°С)
Тd
(°С)
f(%) Тe
(°С)
Pmin
(гПа)
dP
(гПа)
Po
(мм)
O2
(г/м3)
Тmin Tmax R s Состояние
почвы
12 29.11.20 060 (СВ) 1000 м  снег  10/0 средняя 
[As op]
-1.2 -1.6 97 -4  1027.6  -1.6  768  311           
15 29.11.20 070 (В) 4000 м  слаб. снег  10/0 средняя 
[As op]
-1 -1.4 97 -4  1026.8  -0.8  768  311         
18 29.11.20 070 (В) 4000 м  слаб. снег  10/0 средняя 
[As op]
+0.1 -0.8 94 -2  1025.7  -1.1  767  309    +0.1     
21 29.11.20 080 (В) 4000 м  снег  10/10 300 м 
[Ns]
+0 -0.1 99 -2  1024.4  -1.3  766  309           
00 30.11.20 100 (В) 4000 м  слаб. дождь{снег}  10/0 средняя 
[As op]
+0.6 +0.5 99 -2  1023.5  -0.9  765  308           
03 30.11.20 120 (ЮВ) 4000 м  слаб. дождь  10/8 300 м средняя 
[Sc|As trans]
+1.1 +0.8 98 1023.5  765  307  -0.9       
06 30.11.20 170 (Ю) 10 км  {дождь}  10/10 300 м 
[Frnb]
+1.3 +1 98 1023.7  0.2  765  307  -0.3    равномерный
мокрый или
старый снег
100% 
09 30.11.20 160 (Ю) 10 км  в посл. час ливневой дождь  6/3 300 м кучево-дожд., средняя 
[Cb cap|Ac trans]
+1 +0.6 97 1023.5  -0.2  765  307           
12 30.11.20 160 (Ю) 10 км  {ливн. осадки}  10/10 600 м 
[Sc]
+1.2 +0.7 96 +1  1022.3  -1.2  764  307           
15 30.11.20 170 (Ю) 4000 м  слаб. снег  10/0 средняя 
[As op]
+0.7 +0.1 96 -1  1021.5  -0.8  764  307      0.2     
18 30.11.20 180 (Ю) 10 км  {снег}  10/10 300 м 
[Sc]
+0.3 -1 91 -3  1021.5  764  307    +1.4  0.2     
21 30.11.20 170 (Ю) 10 км  {ливн. осадки}  10/10 300 м 
[Sc]
+0.3 -1 91 -3  1021.3  -0.2  764  307           
00 01.12.20 180 (Ю) 2000 м  ливневой снег  10/10 300 м кучево-дожд. 
[Cb cap]
-0.1 -0.7 96 -3  1021.3  764  308           
03 01.12.20 190 (Ю) 6{10}  2000 м  слаб. ливневой снег [диам. отлож. мокр. снега 0 мм]  10/10 300 м кучево-дожд. 
[Cb cap]
-0.1 -0.2 99 -4  1021.7  0.4  764  308  -0.2    0.8     
06 01.12.20 210 (ЮЗ) 5{10}  4000 м  слаб. ливневой снег [диам. отлож. мокр. снега 2 мм]  10/10 300 м кучево-дожд. 
[Cb cap]
+0.1 -0.3 97 -3  1023.6  1.9  765  308  -0.2    равномерный
мокрый или
старый снег
100% 
09 01.12.20 210 (ЮЗ) 4000 м  слаб. ливневой снег  10/10 300 м кучево-дожд. 
[Cb cap]
+0.3 -0.6 94 -2  1026.1  2.5  767  309           
12 01.12.20 200 (Ю) 10 км  {ливн. осадки}  10/10 600 м 
[Sc]
+0.6 -0.7 91 -2  1027.3  1.2  768  309           
15 01.12.20 200 (Ю) 10 км    10/10 600 м 
[Sc]
+0.4 -0.6 93 -1  1029.2  1.9  769  310      0.6     
21 01.12.20 200 (Ю) 4000 м  слаб. ливневой снег  10/10 300 м кучево-дожд. 
[Cb cap]
+0.3 -0.4 95 -1  1031.5  1.1  771  310           
00 02.12.20 210 (ЮЗ) 10 км  {ливн. осадки}  10/10 300 м 
[Sc]
+0.5 -0.6 92 1032.6  1.1  772  311           
03 02.12.20 210 (ЮЗ) 10 км    10/10 600 м 
[Sc]
+0.1 -0.8 94 -2  1033  0.4  772  311  +0.1    0.0     
06 02.12.20 230 (ЮЗ) 4000 м  дымка  10/10 600 м 
[Sc]
-0.4 -1 96 -1  1033.7  0.7  773  312  -0.4    0.0  мокрый или
старый снег
50-90% 
09 02.12.20 220 (ЮЗ) 4000 м  дымка  10/10 600 м 
[Sc]
-0.7 -1.5 94 -2  1034.5  0.8  773  313           
12 02.12.20 200 (Ю) 4000 м  дымка  10/10 600 м 
[Sc]
-1.1 -1.9 94 -3  1033.9  -0.6  773  313           
15 02.12.20 150 (ЮВ) 10 км    10/10 600 м 
[Sc]
-1.7 -2.7 93 -4  1033.3  -0.6  773  314           
Время (UTC), дата Ветер
(°,м/с) 
Видим.   Явления Облачность Т
(°С)
Тd
(°С)
f(%) Тe
(°С)
Pmin
(гПа)
dP
(гПа)
Po
(мм)
O2
(г/м3)
Тmin Tmax R s Состояние
почвы

Для получения пояснительной информации подведите курсор к названию столбца.

ПОГОДА в Новгороде - архив

Всё, что Вы хотите узнать о погоде в Новгороде - удобно и подробно!

Выберите нужную дату (начиная с 1 января 2019* года) и нажмите кнопку "Найти".
Будут отображены архивные сводки погоды по пункту Новгород, начиная с указанной даты.


Отображать данные в формате CSV (для использования в таблицах Excel)


Внимание! Наш архив погоды предназначен исключительно для личного некоммерческого использования в познавательных целях. Если Вам необходимы официальные справки о состоянии погоды (для производственных, юридических, коммерческих и т.п. целей), обращайтесь в органы Росгидромета.

*Примечание: данная дата относится к архиву по метеостанциям СССР (Россия, СНГ, Балтия).
Архив по метеостанциям Зарубежной Европы и Азии (кроме Китая) хранится 10 дней, по другим регионам земного шара (Китай, Африка, Америка, Австралия, Океания) - 1 день.

Новгород - район местоположения метеостанции


Название, широта, долгота, высота метеостанции:
Новгород 58.6°ш. 31.2°д. 24 м над ур. моря [Российская Федерация]

Дополнительная информация

В oтличие oт бoльшинства пoгoдных сайтoв мы публикуем пoдрoбную метеoинфoрмацию в детальнoм прoфессиoнальнoм фoрмате.

Характеристики температуры и влажнoсти вoздуха измеряются на высoте 2 м в тени вдали oт зданий и деревьев.
Скoрoсть ветра измеряется на высoте 10 м (на урoвне рoста челoвека скoрoсть ветра ниже в 1.5-2 раза). Если метеoстанция нахoдится в гoрoде или в лесу, тo скoрoсть ветра занижена на 2-4 м/с пo сравнению с oткрытым местoм. Скoрoсть ветра над акватoриями крупных рек и oзёр, а также на вершинах хoлмoв на 2-5 м/с выше, чем в oбычных услoвиях.
Атмoсфернoе давление в разных тoчках местнoсти мoжет значительнo oтличаться oт давления на метеoстанции, в зависимoсти oт услoвий рельефа (при пoдъёме на 10 м давление пoнижается примернo на 1 мм рт.ст.).